Time,TemperatureF,DewpointF,PressureIn,WindDirection,WindDirectionDegrees,WindSpeedMPH,WindSpeedGustMPH,Humidity,HourlyPrecipIn,Conditions,Clouds,dailyrainin,SoftwareType,DateUTC
2013-01-20 00:03:00,47.7,44.9,30.27,NNE,31,0.0,0.0,90,0.00,,---,0.00,VWS V13.01,2013-01-20 06:03:00,
2013-01-20 00:08:00,47.8,45.0,30.27,NNE,31,0.0,0.0,90,0.00,,---,0.00,VWS V13.01,2013-01-20 06:08:00,
2013-01-20 00:13:00,47.9,45.1,30.27,NNE,31,0.0,0.0,90,0.00,,---,0.00,VWS V13.01,2013-01-20 06:13:00,
2013-01-20 00:18:00,48.1,45.3,30.27,NNE,31,0.0,0.0,90,0.00,,---,0.00,VWS V13.01,2013-01-20 06:18:00,
2013-01-20 00:23:00,48.1,45.3,30.27,NNE,31,0.0,0.0,90,0.00,,---,0.00,VWS V13.01,2013-01-20 06:23:00,
2013-01-20 00:28:00,48.2,45.4,30.27,NNE,31,0.0,0.0,90,0.00,,---,0.00,VWS V13.01,2013-01-20 06:28:00,
2013-01-20 00:33:00,48.4,45.6,30.27,NNE,31,0.0,0.0,90,0.00,,---,0.00,VWS V13.01,2013-01-20 06:33:00,
2013-01-20 00:38:00,48.4,45.6,30.27,NNE,31,0.0,0.0,90,0.00,,---,0.00,VWS V13.01,2013-01-20 06:38:00,
2013-01-20 00:43:00,48.5,45.7,30.27,NNE,31,0.0,0.0,90,0.00,,---,0.00,VWS V13.01,2013-01-20 06:43:00,
2013-01-20 00:48:00,48.7,45.9,30.27,NNE,31,0.0,0.0,90,0.00,,---,0.00,VWS V13.01,2013-01-20 06:48:00,
2013-01-20 00:53:00,48.8,46.0,30.27,NNE,31,0.0,0.0,90,0.00,,---,0.00,VWS V13.01,2013-01-20 06:53:00,
2013-01-20 00:58:00,48.9,46.1,30.27,NNE,31,0.0,0.0,90,0.00,,---,0.00,VWS V13.01,2013-01-20 06:58:00,
2013-01-20 01:03:00,49.0,46.2,30.27,NNE,31,0.0,0.0,90,0.00,,---,0.00,VWS V13.01,2013-01-20 07:03:00,
2013-01-20 01:08:00,49.0,46.2,30.27,NNE,31,0.0,0.0,90,0.00,,---,0.00,VWS V13.01,2013-01-20 07:08:00,
2013-01-20 01:13:00,49.0,46.2,30.27,NNE,31,0.0,0.0,90,0.00,,---,0.00,VWS V13.01,2013-01-20 07:13:00,
2013-01-20 01:18:00,49.0,46.2,30.27,NNE,31,0.0,0.0,90,0.00,,---,0.00,VWS V13.01,2013-01-20 07:18:00,
2013-01-20 01:23:00,49.0,46.2,30.27,NNE,31,0.0,0.0,90,0.00,,---,0.00,VWS V13.01,2013-01-20 07:23:00,
2013-01-20 01:28:00,49.0,46.2,30.27,NNE,31,0.0,0.0,90,0.00,,---,0.00,VWS V13.01,2013-01-20 07:28:00,
2013-01-20 01:33:00,48.9,46.1,30.27,NNE,31,0.0,0.0,90,0.00,,---,0.00,VWS V13.01,2013-01-20 07:33:00,
2013-01-20 01:38:00,48.9,46.1,30.27,NNE,31,0.0,0.0,90,0.00,,---,0.00,VWS V13.01,2013-01-20 07:38:00,
2013-01-20 01:43:00,48.8,46.0,30.27,NNE,31,0.0,0.0,90,0.00,,---,0.00,VWS V13.01,2013-01-20 07:43:00,
2013-01-20 01:48:00,48.8,46.0,30.27,NNE,31,0.0,0.0,90,0.00,,---,0.00,VWS V13.01,2013-01-20 07:48:00,
2013-01-20 01:53:00,48.7,45.9,30.26,NNE,31,0.0,0.0,90,0.00,,---,0.00,VWS V13.01,2013-01-20 07:53:00,
2013-01-20 01:58:00,48.6,45.8,30.27,NNE,31,0.0,0.0,90,0.00,,---,0.00,VWS V13.01,2013-01-20 07:58:00,
2013-01-20 02:03:00,48.5,45.7,30.26,NNE,31,0.0,0.0,90,0.00,,---,0.00,VWS V13.01,2013-01-20 08:03:00,
2013-01-20 02:08:00,48.3,45.5,30.26,NNE,31,0.0,0.0,90,0.00,,---,0.00,VWS V13.01,2013-01-20 08:08:00,
2013-01-20 02:13:00,48.2,45.4,30.26,NNE,31,0.0,0.0,90,0.00,,---,0.00,VWS V13.01,2013-01-20 08:13:00,
2013-01-20 02:18:00,48.0,45.2,30.26,NNE,31,0.0,0.0,90,0.00,,---,0.00,VWS V13.01,2013-01-20 08:18:00,
2013-01-20 02:23:00,47.9,45.1,30.26,NNE,31,0.0,0.0,90,0.00,,---,0.00,VWS V13.01,2013-01-20 08:23:00,
2013-01-20 02:28:00,47.7,44.9,30.26,NNE,31,0.0,0.0,90,0.00,,---,0.00,VWS V13.01,2013-01-20 08:28:00,
2013-01-20 02:33:00,47.5,44.7,30.26,NNE,31,0.0,0.0,90,0.00,,---,0.00,VWS V13.01,2013-01-20 08:33:00,
2013-01-20 02:38:00,47.3,44.2,30.26,NNE,31,0.0,0.0,89,0.00,,---,0.00,VWS V13.01,2013-01-20 08:38:00,
2013-01-20 02:43:00,47.1,44.0,30.26,NNE,31,0.0,0.0,89,0.00,,---,0.00,VWS V13.01,2013-01-20 08:43:00,
2013-01-20 02:48:00,46.9,44.1,30.26,NNE,31,0.0,0.0,90,0.00,,---,0.00,VWS V13.01,2013-01-20 08:48:00,
2013-01-20 02:53:00,46.7,43.9,30.26,NNE,31,0.0,0.0,90,0.00,,---,0.00,VWS V13.01,2013-01-20 08:53:00,
2013-01-20 02:58:00,46.5,43.4,30.26,NNE,31,0.0,0.0,89,0.00,,---,0.00,VWS V13.01,2013-01-20 08:58:00,
2013-01-20 03:03:00,46.4,43.3,30.26,NNE,31,0.0,0.0,89,0.00,,---,0.00,VWS V13.01,2013-01-20 09:03:00,
2013-01-20 03:08:00,46.2,43.4,30.25,NNE,31,0.0,0.0,90,0.00,,---,0.00,VWS V13.01,2013-01-20 09:08:00,
2013-01-20 03:13:00,46.1,43.3,30.25,NNE,31,0.0,0.0,90,0.00,,---,0.00,VWS V13.01,2013-01-20 09:13:00,
2013-01-20 03:18:00,45.9,43.1,30.25,NNE,31,0.0,0.0,90,0.00,,---,0.00,VWS V13.01,2013-01-20 09:18:00,
2013-01-20 03:23:00,45.8,43.0,30.25,NNE,31,0.0,0.0,90,0.00,,---,0.00,VWS V13.01,2013-01-20 09:23:00,
2013-01-20 03:28:00,45.6,42.8,30.26,NNE,31,0.0,0.0,90,0.00,,---,0.00,VWS V13.01,2013-01-20 09:28:00,
2013-01-20 03:33:00,45.5,42.7,30.25,NNE,31,0.0,0.0,90,0.00,,---,0.00,VWS V13.01,2013-01-20 09:33:00,
2013-01-20 03:38:00,45.3,42.5,30.26,NNE,31,0.0,0.0,90,0.00,,---,0.00,VWS V13.01,2013-01-20 09:38:00,
2013-01-20 03:43:00,45.2,42.5,30.25,NNE,31,0.0,0.0,90,0.00,,---,0.00,VWS V13.01,2013-01-20 09:43:00,
2013-01-20 03:48:00,45.1,42.3,30.25,NNE,31,0.0,0.0,90,0.00,,---,0.00,VWS V13.01,2013-01-20 09:48:00,
2013-01-20 03:53:00,45.0,42.2,30.25,NNE,31,0.0,0.0,90,0.00,,---,0.00,VWS V13.01,2013-01-20 09:53:00,
2013-01-20 03:58:00,44.9,42.2,30.25,NNE,31,0.0,0.0,90,0.00,,---,0.00,VWS V13.01,2013-01-20 09:58:00,
2013-01-20 04:03:00,44.8,42.0,30.25,NNE,31,0.0,0.0,90,0.00,,---,0.00,VWS V13.01,2013-01-20 10:03:00,
2013-01-20 04:08:00,44.7,42.0,30.25,NNE,31,0.0,0.0,90,0.00,,---,0.00,VWS V13.01,2013-01-20 10:08:00,
2013-01-20 04:13:00,44.6,41.8,30.25,NNE,31,0.0,0.0,90,0.00,,---,0.00,VWS V13.01,2013-01-20 10:13:00,
2013-01-20 04:18:00,44.4,41.9,30.25,NNE,31,0.0,0.0,91,0.00,,---,0.00,VWS V13.01,2013-01-20 10:18:00,
2013-01-20 04:23:00,44.3,41.6,30.25,NNE,31,0.0,0.0,90,0.00,,---,0.00,VWS V13.01,2013-01-20 10:23:00,
2013-01-20 04:28:00,44.2,41.7,30.25,NNE,31,0.0,0.0,91,0.00,,---,0.00,VWS V13.01,2013-01-20 10:28:00,
2013-01-20 04:33:00,44.1,41.7,30.25,NNE,31,0.0,0.0,91,0.00,,---,0.00,VWS V13.01,2013-01-20 10:33:00,
2013-01-20 04:38:00,44.0,41.5,30.25,NNE,31,0.0,0.0,91,0.00,,---,0.00,VWS V13.01,2013-01-20 10:38:00,
2013-01-20 04:43:00,43.8,41.3,30.25,NNE,31,0.0,0.0,91,0.00,,---,0.00,VWS V13.01,2013-01-20 10:43:00,
2013-01-20 04:48:00,43.7,41.2,30.25,NNE,31,0.0,0.0,91,0.00,,---,0.00,VWS V13.01,2013-01-20 10:48:00,
2013-01-20 04:53:00,43.6,41.2,30.25,NNE,31,0.0,0.0,91,0.00,,---,0.00,VWS V13.01,2013-01-20 10:53:00,
2013-01-20 04:58:00,43.4,41.0,30.25,NNE,31,0.0,0.0,91,0.00,,---,0.00,VWS V13.01,2013-01-20 10:58:00,
2013-01-20 05:03:00,43.3,40.8,30.25,NNE,31,0.0,0.0,91,0.00,,---,0.00,VWS V13.01,2013-01-20 11:03:00,
2013-01-20 05:08:00,43.2,40.8,30.25,NNE,31,0.0,0.0,91,0.00,,---,0.00,VWS V13.01,2013-01-20 11:08:00,
2013-01-20 05:13:00,43.1,40.7,30.25,NNE,31,0.0,0.0,91,0.00,,---,0.00,VWS V13.01,2013-01-20 11:13:00,
2013-01-20 05:18:00,43.0,40.6,30.26,NNE,31,0.0,0.0,91,0.00,,---,0.00,VWS V13.01,2013-01-20 11:18:00,
2013-01-20 05:23:00,42.9,40.5,30.26,NNE,31,0.0,0.0,91,0.00,,---,0.00,VWS V13.01,2013-01-20 11:23:00,
2013-01-20 05:28:00,42.9,40.5,30.26,NNE,31,0.0,0.0,91,0.00,,---,0.00,VWS V13.01,2013-01-20 11:28:00,
2013-01-20 05:33:00,42.7,40.3,30.26,NNE,31,0.0,0.0,91,0.00,,---,0.00,VWS V13.01,2013-01-20 11:33:00,
2013-01-20 05:38:00,42.7,40.3,30.26,NNE,31,0.0,0.0,91,0.00,,---,0.00,VWS V13.01,2013-01-20 11:38:00,
2013-01-20 05:43:00,42.6,40.2,30.26,NNE,31,0.0,0.0,91,0.00,,---,0.00,VWS V13.01,2013-01-20 11:43:00,
2013-01-20 05:48:00,42.5,40.1,30.26,NNE,31,0.0,0.0,91,0.00,,---,0.00,VWS V13.01,2013-01-20 11:48:00,
2013-01-20 05:53:00,42.4,40.0,30.26,NNE,31,0.0,0.0,91,0.00,,---,0.00,VWS V13.01,2013-01-20 11:53:00,
2013-01-20 05:58:00,42.4,40.0,30.26,NNE,31,0.0,0.0,91,0.00,,---,0.00,VWS V13.01,2013-01-20 11:58:00,
2013-01-20 06:03:00,42.3,39.9,30.26,NNE,31,0.0,0.0,91,0.00,,---,0.00,VWS V13.01,2013-01-20 12:03:00,
2013-01-20 06:07:00,42.2,39.8,30.26,NNE,31,0.0,0.0,91,0.00,,---,0.00,VWS V13.01,2013-01-20 12:07:00,
2013-01-20 06:12:00,42.1,39.7,30.26,NNE,31,0.0,0.0,91,0.00,,---,0.00,VWS V13.01,2013-01-20 12:12:00,
2013-01-20 06:17:00,42.0,39.6,30.26,NNE,31,0.0,0.0,91,0.00,,---,0.00,VWS V13.01,2013-01-20 12:17:00,
2013-01-20 06:22:00,41.9,39.5,30.27,NNE,31,0.0,0.0,91,0.00,,---,0.00,VWS V13.01,2013-01-20 12:22:00,
2013-01-20 06:27:00,41.8,39.4,30.26,NNE,31,0.0,0.0,91,0.00,,---,0.00,VWS V13.01,2013-01-20 12:27:00,
2013-01-20 06:32:00,41.7,39.3,30.27,NNE,31,0.0,0.0,91,0.00,,---,0.00,VWS V13.01,2013-01-20 12:32:00,
2013-01-20 06:37:00,41.6,39.2,30.27,NNE,31,0.0,0.0,91,0.00,,---,0.00,VWS V13.01,2013-01-20 12:37:00,
2013-01-20 06:42:00,41.5,39.1,30.27,NNE,31,0.0,0.0,91,0.00,,---,0.00,VWS V13.01,2013-01-20 12:42:00,
2013-01-20 06:47:00,41.5,39.1,30.26,NNE,31,0.0,0.0,91,0.00,,---,0.00,VWS V13.01,2013-01-20 12:47:00,
2013-01-20 06:52:00,41.5,39.3,30.27,NNE,31,0.0,0.0,92,0.00,,---,0.00,VWS V13.01,2013-01-20 12:52:00,
2013-01-20 06:57:00,41.5,39.3,30.27,NNE,31,0.0,0.0,92,0.00,,---,0.00,VWS V13.01,2013-01-20 12:57:00,
2013-01-20 07:02:00,41.6,39.5,30.27,NNE,31,0.0,0.0,92,0.00,,---,0.00,VWS V13.01,2013-01-20 13:02:00,
2013-01-20 07:07:00,41.7,39.5,30.27,NNE,31,0.0,0.0,92,0.00,,---,0.00,VWS V13.01,2013-01-20 13:07:00,
2013-01-20 07:12:00,42.0,39.8,30.27,NNE,31,0.0,1.0,92,0.00,,---,0.00,VWS V13.01,2013-01-20 13:12:00,
2013-01-20 07:17:00,42.4,40.5,30.27,NNE,31,0.0,0.0,93,0.00,,---,0.00,VWS V13.01,2013-01-20 13:17:00,
2013-01-20 07:22:00,42.8,40.9,30.27,NNE,31,0.0,1.0,93,0.00,,---,0.00,VWS V13.01,2013-01-20 13:22:00,
2013-01-20 07:27:00,43.1,41.2,30.27,NNE,31,0.0,0.0,93,0.00,,---,0.00,VWS V13.01,2013-01-20 13:27:00,
2013-01-20 07:32:00,43.2,41.3,30.27,NNE,31,0.0,1.0,93,0.00,,---,0.00,VWS V13.01,2013-01-20 13:32:00,
2013-01-20 07:37:00,43.3,41.4,30.28,NNE,31,0.0,0.0,93,0.00,,---,0.00,VWS V13.01,2013-01-20 13:37:00,
2013-01-20 07:42:00,43.4,41.5,30.28,NNE,31,0.0,0.0,93,0.00,,---,0.00,VWS V13.01,2013-01-20 13:42:00,
2013-01-20 07:47:00,43.6,41.7,30.28,NNE,31,0.0,0.0,93,0.00,,---,0.00,VWS V13.01,2013-01-20 13:47:00,
2013-01-20 07:52:00,43.7,41.8,30.28,NNE,31,0.0,0.0,93,0.00,,---,0.00,VWS V13.01,2013-01-20 13:52:00,
2013-01-20 07:57:00,44.0,42.1,30.28,NNE,31,0.0,0.0,93,0.00,,---,0.00,VWS V13.01,2013-01-20 13:57:00,
2013-01-20 08:02:00,44.7,43.1,30.27,NNE,31,0.0,0.0,94,0.00,,---,0.00,VWS V13.01,2013-01-20 14:02:00,
2013-01-20 08:07:00,45.1,43.5,30.27,NNE,31,0.0,0.0,94,0.00,,---,0.00,VWS V13.01,2013-01-20 14:07:00,
2013-01-20 08:12:00,45.5,43.9,30.27,NNE,31,0.0,1.0,94,0.00,,---,0.00,VWS V13.01,2013-01-20 14:12:00,
2013-01-20 08:17:00,46.1,44.5,30.28,NNE,31,0.0,1.0,94,0.00,,---,0.00,VWS V13.01,2013-01-20 14:17:00,
2013-01-20 08:22:00,47.0,45.4,30.28,NNE,31,0.0,3.0,94,0.00,,---,0.00,VWS V13.01,2013-01-20 14:22:00,
2013-01-20 08:27:00,48.1,46.2,30.28,NNE,31,0.0,3.0,93,0.00,,---,0.00,VWS V13.01,2013-01-20 14:27:00,
2013-01-20 08:32:00,49.1,46.9,30.28,NNE,31,0.0,1.0,92,0.00,,---,0.00,VWS V13.01,2013-01-20 14:32:00,
2013-01-20 08:37:00,50.0,47.5,30.28,NNE,31,0.0,1.0,91,0.00,,---,0.00,VWS V13.01,2013-01-20 14:37:00,
2013-01-20 08:42:00,51.0,47.9,30.28,NNE,31,0.0,0.0,89,0.00,,---,0.00,VWS V13.01,2013-01-20 14:42:00,
2013-01-20 08:47:00,51.9,48.2,30.28,NNE,31,0.0,2.0,87,0.00,,---,0.00,VWS V13.01,2013-01-20 14:47:00,
2013-01-20 08:52:00,52.7,48.3,30.28,NNE,31,0.0,0.0,85,0.00,,---,0.00,VWS V13.01,2013-01-20 14:52:00,
2013-01-20 08:57:00,53.5,48.8,30.28,NNE,31,2.0,2.0,84,0.00,,---,0.00,VWS V13.01,2013-01-20 14:57:00,
2013-01-20 09:02:00,54.3,48.9,30.28,NNE,23,5.0,5.0,82,0.00,,---,0.00,VWS V13.01,2013-01-20 15:02:00,
2013-01-20 09:08:00,55.4,49.0,30.28,North,360,0.0,5.0,79,0.00,,---,0.00,VWS V13.01,2013-01-20 15:08:00,
2013-01-20 09:12:00,56.3,48.5,30.28,NNW,346,2.0,5.0,75,0.00,,---,0.00,VWS V13.01,2013-01-20 15:12:00,
2013-01-20 09:17:00,56.9,48.3,30.28,WNW,294,2.0,4.0,73,0.00,,---,0.00,VWS V13.01,2013-01-20 15:17:00,
2013-01-20 09:22:00,57.1,47.8,30.29,NNE,15,0.0,10.0,71,0.00,,---,0.00,VWS V13.01,2013-01-20 15:22:00,
2013-01-20 09:27:00,57.4,48.1,30.29,NNW,327,2.0,2.0,71,0.00,,---,0.00,VWS V13.01,2013-01-20 15:27:00,
2013-01-20 09:32:00,57.8,48.1,30.29,North,5,1.0,8.0,70,0.00,,---,0.00,VWS V13.01,2013-01-20 15:32:00,
2013-01-20 09:37:00,58.1,48.0,30.28,NNE,33,7.0,8.0,69,0.00,,---,0.00,VWS V13.01,2013-01-20 15:37:00,
2013-01-20 09:42:00,58.2,47.7,30.28,North,360,0.0,7.0,68,0.00,,---,0.00,VWS V13.01,2013-01-20 15:42:00,
2013-01-20 09:47:00,58.4,47.9,30.28,North,355,3.0,10.0,68,0.00,,---,0.00,VWS V13.01,2013-01-20 15:47:00,
2013-01-20 09:52:00,58.4,47.9,30.28,NW,319,1.0,8.0,68,0.00,,---,0.00,VWS V13.01,2013-01-20 15:52:00,
2013-01-20 09:57:00,58.6,48.1,30.28,NNW,329,4.0,7.0,68,0.00,,---,0.00,VWS V13.01,2013-01-20 15:57:00,
2013-01-20 10:02:00,58.9,48.4,30.28,West,266,0.0,5.0,68,0.00,,---,0.00,VWS V13.01,2013-01-20 16:02:00,
2013-01-20 10:07:00,59.1,48.2,30.28,NNE,27,2.0,5.0,67,0.00,,---,0.00,VWS V13.01,2013-01-20 16:07:00,
2013-01-20 10:12:00,59.2,47.9,30.28,North,360,0.0,6.0,66,0.00,,---,0.00,VWS V13.01,2013-01-20 16:12:00,
2013-01-20 10:17:00,59.4,48.5,30.28,NNE,25,3.0,4.0,67,0.00,,---,0.00,VWS V13.01,2013-01-20 16:17:00,
2013-01-20 10:22:00,59.7,48.3,30.27,WNW,302,2.0,5.0,66,0.00,,---,0.00,VWS V13.01,2013-01-20 16:22:00,
2013-01-20 10:27:00,59.9,48.5,30.27,WNW,301,1.0,3.0,66,0.00,,---,0.00,VWS V13.01,2013-01-20 16:27:00,
2013-01-20 10:32:00,60.1,48.7,30.27,NNE,13,4.0,8.0,66,0.00,,---,0.00,VWS V13.01,2013-01-20 16:32:00,
2013-01-20 10:37:00,60.2,48.8,30.26,NNE,26,5.0,7.0,66,0.00,,---,0.00,VWS V13.01,2013-01-20 16:37:00,
2013-01-20 10:42:00,60.4,48.6,30.26,NNW,338,4.0,7.0,65,0.00,,---,0.00,VWS V13.01,2013-01-20 16:42:00,
2013-01-20 10:47:00,60.6,48.8,30.26,WNW,292,0.0,2.0,65,0.00,,---,0.00,VWS V13.01,2013-01-20 16:47:00,
2013-01-20 10:52:00,61.0,48.8,30.26,NW,315,0.0,3.0,64,0.00,,---,0.00,VWS V13.01,2013-01-20 16:52:00,
2013-01-20 10:57:00,61.3,49.0,30.26,NE,55,4.0,5.0,64,0.00,,---,0.00,VWS V13.01,2013-01-20 16:57:00,
2013-01-20 11:02:00,61.4,47.4,30.25,NE,51,6.0,6.0,60,0.00,,---,0.00,VWS V13.01,2013-01-20 17:02:00,
2013-01-20 11:07:00,61.5,47.9,30.24,NNE,25,0.0,4.0,61,0.00,,---,0.00,VWS V13.01,2013-01-20 17:07:00,
2013-01-20 11:12:00,61.9,47.0,30.24,NNE,17,3.0,9.0,58,0.00,,---,0.00,VWS V13.01,2013-01-20 17:12:00,
2013-01-20 11:17:00,62.3,46.9,30.24,NE,40,0.0,5.0,57,0.00,,---,0.00,VWS V13.01,2013-01-20 17:17:00,
2013-01-20 11:22:00,62.2,48.2,30.24,NW,313,2.0,5.0,60,0.00,,---,0.00,VWS V13.01,2013-01-20 17:22:00,
2013-01-20 11:27:00,62.5,47.5,30.24,WNW,300,2.0,4.0,58,0.00,,---,0.00,VWS V13.01,2013-01-20 17:27:00,
2013-01-20 11:32:00,62.7,48.2,30.23,NNE,20,4.0,6.0,59,0.00,,---,0.00,VWS V13.01,2013-01-20 17:32:00,
2013-01-20 11:37:00,62.9,47.9,30.23,NNW,342,0.0,5.0,58,0.00,,---,0.00,VWS V13.01,2013-01-20 17:37:00,
2013-01-20 11:42:00,62.9,47.9,30.23,WNW,300,1.0,3.0,58,0.00,,---,0.00,VWS V13.01,2013-01-20 17:42:00,
2013-01-20 11:47:00,63.2,46.3,30.22,NW,307,0.0,4.0,54,0.00,,---,0.00,VWS V13.01,2013-01-20 17:47:00,
2013-01-20 11:52:00,63.5,47.1,30.22,WNW,303,0.0,9.0,55,0.00,,---,0.00,VWS V13.01,2013-01-20 17:52:00,
2013-01-20 11:57:00,63.4,47.5,30.21,North,9,3.0,5.0,56,0.00,,---,0.00,VWS V13.01,2013-01-20 17:57:00,
2013-01-20 12:02:00,63.6,47.2,30.21,NE,40,1.0,6.0,55,0.00,,---,0.00,VWS V13.01,2013-01-20 18:02:00,
2013-01-20 12:07:00,64.3,47.3,30.21,NNW,346,0.0,1.0,54,0.00,,---,0.00,VWS V13.01,2013-01-20 18:07:00,
2013-01-20 12:12:00,64.3,45.8,30.20,North,360,0.0,4.0,51,0.00,,---,0.00,VWS V13.01,2013-01-20 18:12:00,
2013-01-20 12:17:00,64.3,47.3,30.20,NE,39,1.0,6.0,54,0.00,,---,0.00,VWS V13.01,2013-01-20 18:17:00,
2013-01-20 12:22:00,64.2,46.2,30.20,ENE,71,1.0,4.0,52,0.00,,---,0.00,VWS V13.01,2013-01-20 18:22:00,
2013-01-20 12:27:00,64.4,46.9,30.20,NE,45,4.0,6.0,53,0.00,,---,0.00,VWS V13.01,2013-01-20 18:27:00,
2013-01-20 12:32:00,64.6,46.6,30.20,ENE,61,0.0,5.0,52,0.00,,---,0.00,VWS V13.01,2013-01-20 18:32:00,
2013-01-20 12:37:00,64.5,46.0,30.19,NE,41,0.0,4.0,51,0.00,,---,0.00,VWS V13.01,2013-01-20 18:37:00,
2013-01-20 12:42:00,64.6,46.1,30.19,NNE,22,4.0,5.0,51,0.00,,---,0.00,VWS V13.01,2013-01-20 18:42:00,
2013-01-20 12:47:00,64.3,44.8,30.19,North,9,0.0,6.0,49,0.00,,---,0.00,VWS V13.01,2013-01-20 18:47:00,
2013-01-20 12:52:00,64.4,46.4,30.19,NNW,333,0.0,4.0,52,0.00,,---,0.00,VWS V13.01,2013-01-20 18:52:00,
2013-01-20 12:57:00,64.6,47.1,30.18,NW,323,0.0,2.0,53,0.00,,---,0.00,VWS V13.01,2013-01-20 18:57:00,
2013-01-20 13:02:00,64.6,46.1,30.18,NE,46,0.0,1.0,51,0.00,,---,0.00,VWS V13.01,2013-01-20 19:02:00,
2013-01-20 13:07:00,64.6,46.1,30.18,NW,323,2.0,6.0,51,0.00,,---,0.00,VWS V13.01,2013-01-20 19:07:00,
2013-01-20 13:12:00,64.8,47.3,30.18,NW,321,0.0,1.0,53,0.00,,---,0.00,VWS V13.01,2013-01-20 19:12:00,
2013-01-20 13:17:00,65.6,48.0,30.17,West,265,0.0,3.0,53,0.00,,---,0.00,VWS V13.01,2013-01-20 19:17:00,
2013-01-20 13:22:00,66.1,48.5,30.17,West,265,2.0,2.0,53,0.00,,---,0.00,VWS V13.01,2013-01-20 19:22:00,
2013-01-20 13:27:00,66.0,47.4,30.17,NW,306,1.0,4.0,51,0.00,,---,0.00,VWS V13.01,2013-01-20 19:27:00,
2013-01-20 13:32:00,65.4,45.8,30.17,ENE,65,0.0,5.0,49,0.00,,---,0.00,VWS V13.01,2013-01-20 19:32:00,
2013-01-20 13:37:00,65.3,45.7,30.17,NE,38,3.0,6.0,49,0.00,,---,0.00,VWS V13.01,2013-01-20 19:37:00,
2013-01-20 13:42:00,64.9,46.4,30.17,East,101,0.0,1.0,51,0.00,,---,0.00,VWS V13.01,2013-01-20 19:42:00,
2013-01-20 13:47:00,65.7,46.6,30.16,WNW,288,4.0,4.0,50,0.00,,---,0.00,VWS V13.01,2013-01-20 19:47:00,
2013-01-20 13:52:00,66.0,46.8,30.16,WNW,288,0.0,2.0,50,0.00,,---,0.00,VWS V13.01,2013-01-20 19:52:00,
2013-01-20 13:57:00,66.8,46.5,30.16,WSW,252,4.0,4.0,48,0.00,,---,0.00,VWS V13.01,2013-01-20 19:57:00,
2013-01-20 14:02:00,66.7,46.4,30.16,West,275,1.0,4.0,48,0.00,,---,0.00,VWS V13.01,2013-01-20 20:02:00,
2013-01-20 14:07:00,65.9,44.6,30.16,NW,318,2.0,2.0,46,0.00,,---,0.00,VWS V13.01,2013-01-20 20:07:00,
2013-01-20 14:12:00,65.7,46.0,30.16,North,355,0.0,4.0,49,0.00,,---,0.00,VWS V13.01,2013-01-20 20:12:00,
2013-01-20 14:17:00,65.6,46.0,30.16,North,9,0.0,4.0,49,0.00,,---,0.00,VWS V13.01,2013-01-20 20:17:00,
2013-01-20 14:22:00,65.8,45.6,30.15,North,360,0.0,1.0,48,0.00,,---,0.00,VWS V13.01,2013-01-20 20:22:00,
2013-01-20 14:27:00,65.3,45.1,30.15,North,360,0.0,2.0,48,0.00,,---,0.00,VWS V13.01,2013-01-20 20:27:00,
2013-01-20 14:32:00,65.5,45.8,30.15,North,360,0.0,2.0,49,0.00,,---,0.00,VWS V13.01,2013-01-20 20:32:00,
2013-01-20 14:37:00,65.4,45.2,30.15,North,360,0.0,3.0,48,0.00,,---,0.00,VWS V13.01,2013-01-20 20:37:00,
2013-01-20 14:42:00,65.3,45.1,30.15,NNE,24,0.0,1.0,48,0.00,,---,0.00,VWS V13.01,2013-01-20 20:42:00,
2013-01-20 14:47:00,65.5,45.8,30.15,NE,48,0.0,4.0,49,0.00,,---,0.00,VWS V13.01,2013-01-20 20:47:00,
2013-01-20 14:52:00,65.5,45.8,30.15,NNE,16,3.0,5.0,49,0.00,,---,0.00,VWS V13.01,2013-01-20 20:52:00,
2013-01-20 14:57:00,65.4,45.2,30.15,North,360,0.0,4.0,48,0.00,,---,0.00,VWS V13.01,2013-01-20 20:57:00,
2013-01-20 15:02:00,65.4,46.3,30.15,NNW,342,0.0,2.0,50,0.00,,---,0.00,VWS V13.01,2013-01-20 21:02:00,
2013-01-20 15:07:00,65.6,46.5,30.15,NNW,342,2.0,2.0,50,0.00,,---,0.00,VWS V13.01,2013-01-20 21:07:00,
2013-01-20 15:12:00,65.5,45.3,30.15,NNW,345,0.0,1.0,48,0.00,,---,0.00,VWS V13.01,2013-01-20 21:12:00,
2013-01-20 15:17:00,65.4,46.3,30.15,NNW,345,0.0,1.0,50,0.00,,---,0.00,VWS V13.01,2013-01-20 21:17:00,
2013-01-20 15:22:00,65.5,46.9,30.15,NNW,345,0.0,0.0,51,0.00,,---,0.00,VWS V13.01,2013-01-20 21:22:00,
2013-01-20 15:27:00,65.5,46.4,30.14,NNW,345,0.0,2.0,50,0.00,,---,0.00,VWS V13.01,2013-01-20 21:27:00,
2013-01-20 15:32:00,65.3,46.2,30.15,NNW,333,0.0,2.0,50,0.00,,---,0.00,VWS V13.01,2013-01-20 21:32:00,
2013-01-20 15:37:00,65.1,46.5,30.14,WNW,284,0.0,2.0,51,0.00,,---,0.00,VWS V13.01,2013-01-20 21:37:00,
2013-01-20 15:42:00,65.0,46.5,30.14,WNW,284,0.0,1.0,51,0.00,,---,0.00,VWS V13.01,2013-01-20 21:42:00,
2013-01-20 15:47:00,64.9,45.8,30.15,WNW,285,0.0,2.0,50,0.00,,---,0.00,VWS V13.01,2013-01-20 21:47:00,
2013-01-20 15:52:00,64.8,45.7,30.15,North,5,0.0,1.0,50,0.00,,---,0.00,VWS V13.01,2013-01-20 21:52:00,
2013-01-20 15:57:00,64.7,45.7,30.15,North,5,0.0,2.0,50,0.00,,---,0.00,VWS V13.01,2013-01-20 21:57:00,
2013-01-20 16:03:00,64.7,45.7,30.15,North,5,0.0,1.0,50,0.00,,---,0.00,VWS V13.01,2013-01-20 22:03:00,
2013-01-20 16:08:00,64.6,45.6,30.15,North,5,0.0,2.0,50,0.00,,---,0.00,VWS V13.01,2013-01-20 22:08:00,
2013-01-20 16:13:00,64.4,45.9,30.15,North,5,0.0,2.0,51,0.00,,---,0.00,VWS V13.01,2013-01-20 22:13:00,
2013-01-20 16:18:00,64.3,45.8,30.15,North,5,0.0,0.0,51,0.00,,---,0.00,VWS V13.01,2013-01-20 22:18:00,
2013-01-20 16:23:00,64.2,46.2,30.15,North,5,0.0,1.0,52,0.00,,---,0.00,VWS V13.01,2013-01-20 22:23:00,
2013-01-20 16:28:00,64.0,46.5,30.15,North,5,0.0,1.0,53,0.00,,---,0.00,VWS V13.01,2013-01-20 22:28:00,
2013-01-20 16:33:00,63.8,46.4,30.15,North,5,0.0,0.0,53,0.00,,---,0.00,VWS V13.01,2013-01-20 22:33:00,
2013-01-20 16:38:00,63.6,46.7,30.15,North,5,0.0,1.0,54,0.00,,---,0.00,VWS V13.01,2013-01-20 22:38:00,
2013-01-20 16:43:00,63.4,47.0,30.15,North,5,0.0,0.0,55,0.00,,---,0.00,VWS V13.01,2013-01-20 22:43:00,
2013-01-20 16:48:00,63.2,47.7,30.15,North,5,0.0,0.0,57,0.00,,---,0.00,VWS V13.01,2013-01-20 22:48:00,
2013-01-20 16:53:00,63.1,47.6,30.15,North,5,0.0,0.0,57,0.00,,---,0.00,VWS V13.01,2013-01-20 22:53:00,
2013-01-20 16:58:00,62.7,47.7,30.15,North,5,0.0,0.0,58,0.00,,---,0.00,VWS V13.01,2013-01-20 22:58:00,
2013-01-20 17:03:00,62.4,47.5,30.15,North,5,0.0,0.0,58,0.00,,---,0.00,VWS V13.01,2013-01-20 23:03:00,
2013-01-20 17:08:00,61.8,47.3,30.15,North,5,0.0,0.0,59,0.00,,---,0.00,VWS V13.01,2013-01-20 23:08:00,
2013-01-20 17:13:00,61.6,47.6,30.15,North,5,0.0,0.0,60,0.00,,---,0.00,VWS V13.01,2013-01-20 23:13:00,
2013-01-20 17:18:00,61.2,47.7,30.15,North,5,0.0,0.0,61,0.00,,---,0.00,VWS V13.01,2013-01-20 23:18:00,
2013-01-20 17:23:00,60.8,47.3,30.15,North,5,0.0,0.0,61,0.00,,---,0.00,VWS V13.01,2013-01-20 23:23:00,
2013-01-20 17:28:00,60.4,47.3,30.15,North,5,0.0,0.0,62,0.00,,---,0.00,VWS V13.01,2013-01-20 23:28:00,
2013-01-20 17:33:00,59.9,47.7,30.15,North,5,0.0,0.0,64,0.00,,---,0.00,VWS V13.01,2013-01-20 23:33:00,
2013-01-20 17:38:00,59.4,46.8,30.16,North,5,0.0,0.0,63,0.00,,---,0.00,VWS V13.01,2013-01-20 23:38:00,
2013-01-20 17:43:00,58.9,46.8,30.16,North,5,0.0,0.0,64,0.00,,---,0.00,VWS V13.01,2013-01-20 23:43:00,
2013-01-20 17:48:00,58.4,46.7,30.16,North,5,0.0,0.0,65,0.00,,---,0.00,VWS V13.01,2013-01-20 23:48:00,
2013-01-20 17:53:00,57.8,46.5,30.15,North,5,0.0,0.0,66,0.00,,---,0.00,VWS V13.01,2013-01-20 23:53:00,
2013-01-20 17:58:00,57.3,46.0,30.15,North,5,0.0,0.0,66,0.00,,---,0.00,VWS V13.01,2013-01-20 23:58:00,
2013-01-20 18:03:00,56.9,45.7,30.15,North,5,0.0,0.0,66,0.00,,---,0.00,VWS V13.01,2013-01-21 00:03:00,
2013-01-20 18:08:00,56.5,45.3,30.15,North,5,0.0,0.0,66,0.00,,---,0.00,VWS V13.01,2013-01-21 00:08:00,
2013-01-20 18:13:00,56.1,45.3,30.15,North,5,0.0,0.0,67,0.00,,---,0.00,VWS V13.01,2013-01-21 00:13:00,
2013-01-20 18:18:00,55.8,45.0,30.15,North,5,0.0,0.0,67,0.00,,---,0.00,VWS V13.01,2013-01-21 00:18:00,
2013-01-20 18:23:00,55.4,44.6,30.16,North,5,0.0,0.0,67,0.00,,---,0.00,VWS V13.01,2013-01-21 00:23:00,
2013-01-20 18:28:00,55.1,44.7,30.16,North,5,0.0,0.0,68,0.00,,---,0.00,VWS V13.01,2013-01-21 00:28:00,
2013-01-20 18:33:00,54.8,44.5,30.16,North,5,0.0,0.0,68,0.00,,---,0.00,VWS V13.01,2013-01-21 00:33:00,
2013-01-20 18:38:00,54.5,44.2,30.16,North,5,0.0,0.0,68,0.00,,---,0.00,VWS V13.01,2013-01-21 00:38:00,
2013-01-20 18:43:00,54.3,44.4,30.15,North,5,0.0,0.0,69,0.00,,---,0.00,VWS V13.01,2013-01-21 00:43:00,
2013-01-20 18:48:00,54.0,44.1,30.15,North,5,0.0,0.0,69,0.00,,---,0.00,VWS V13.01,2013-01-21 00:48:00,
2013-01-20 18:53:00,53.8,43.9,30.15,North,5,0.0,0.0,69,0.00,,---,0.00,VWS V13.01,2013-01-21 00:53:00,
2013-01-20 18:58:00,53.5,44.0,30.15,North,5,0.0,0.0,70,0.00,,---,0.00,VWS V13.01,2013-01-21 00:58:00,
2013-01-20 19:03:00,53.3,43.8,30.15,North,5,0.0,0.0,70,0.00,,---,0.00,VWS V13.01,2013-01-21 01:03:00,
2013-01-20 19:08:00,53.1,43.6,30.15,North,5,0.0,0.0,70,0.00,,---,0.00,VWS V13.01,2013-01-21 01:08:00,
2013-01-20 19:13:00,52.9,43.8,30.16,North,5,0.0,0.0,71,0.00,,---,0.00,VWS V13.01,2013-01-21 01:13:00,
2013-01-20 19:18:00,52.6,44.2,30.16,North,5,0.0,0.0,73,0.00,,---,0.00,VWS V13.01,2013-01-21 01:18:00,
2013-01-20 19:23:00,52.3,43.9,30.16,North,5,0.0,0.0,73,0.00,,---,0.00,VWS V13.01,2013-01-21 01:23:00,
2013-01-20 19:28:00,52.1,44.4,30.16,North,5,0.0,0.0,75,0.00,,---,0.00,VWS V13.01,2013-01-21 01:28:00,
2013-01-20 19:33:00,51.9,44.2,30.17,North,5,0.0,0.0,75,0.00,,---,0.00,VWS V13.01,2013-01-21 01:33:00,
2013-01-20 19:38:00,51.5,44.2,30.17,North,5,0.0,0.0,76,0.00,,---,0.00,VWS V13.01,2013-01-21 01:38:00,
2013-01-20 19:43:00,51.2,44.2,30.17,North,5,0.0,0.0,77,0.00,,---,0.00,VWS V13.01,2013-01-21 01:43:00,
2013-01-20 19:48:00,50.9,44.3,30.17,North,5,0.0,0.0,78,0.00,,---,0.00,VWS V13.01,2013-01-21 01:48:00,
2013-01-20 19:53:00,50.6,44.3,30.17,North,5,0.0,0.0,79,0.00,,---,0.00,VWS V13.01,2013-01-21 01:53:00,
2013-01-20 19:58:00,50.4,44.1,30.17,North,5,0.0,0.0,79,0.00,,---,0.00,VWS V13.01,2013-01-21 01:58:00,
2013-01-20 20:03:00,50.3,44.0,30.17,North,5,0.0,0.0,79,0.00,,---,0.00,VWS V13.01,2013-01-21 02:03:00,
2013-01-20 20:08:00,50.1,44.2,30.17,North,5,0.0,0.0,80,0.00,,---,0.00,VWS V13.01,2013-01-21 02:08:00,
2013-01-20 20:13:00,50.0,44.1,30.16,North,5,0.0,0.0,80,0.00,,---,0.00,VWS V13.01,2013-01-21 02:13:00,
2013-01-20 20:18:00,49.9,44.3,30.17,North,5,0.0,0.0,81,0.00,,---,0.00,VWS V13.01,2013-01-21 02:18:00,
2013-01-20 20:23:00,49.8,44.5,30.17,North,5,0.0,0.0,82,0.00,,---,0.00,VWS V13.01,2013-01-21 02:23:00,
2013-01-20 20:28:00,49.8,44.5,30.17,North,5,0.0,0.0,82,0.00,,---,0.00,VWS V13.01,2013-01-21 02:28:00,
2013-01-20 20:33:00,49.6,44.3,30.17,North,5,0.0,0.0,82,0.00,,---,0.00,VWS V13.01,2013-01-21 02:33:00,
2013-01-20 20:38:00,49.5,44.2,30.18,North,5,0.0,0.0,82,0.00,,---,0.00,VWS V13.01,2013-01-21 02:38:00,
2013-01-20 20:43:00,49.5,44.6,30.18,North,5,0.0,0.0,83,0.00,,---,0.00,VWS V13.01,2013-01-21 02:43:00,
2013-01-20 20:48:00,49.4,44.5,30.17,North,5,0.0,0.0,83,0.00,,---,0.00,VWS V13.01,2013-01-21 02:48:00,
2013-01-20 20:53:00,49.3,44.4,30.17,North,5,0.0,0.0,83,0.00,,---,0.00,VWS V13.01,2013-01-21 02:53:00,
2013-01-20 20:58:00,49.2,44.6,30.17,North,5,0.0,0.0,84,0.00,,---,0.00,VWS V13.01,2013-01-21 02:58:00,
2013-01-20 21:03:00,49.2,44.6,30.17,North,5,0.0,0.0,84,0.00,,---,0.00,VWS V13.01,2013-01-21 03:03:00,
2013-01-20 21:08:00,49.1,44.5,30.17,North,5,0.0,0.0,84,0.00,,---,0.00,VWS V13.01,2013-01-21 03:08:00,
2013-01-20 21:13:00,48.9,44.3,30.18,North,5,0.0,0.0,84,0.00,,---,0.00,VWS V13.01,2013-01-21 03:13:00,
2013-01-20 21:18:00,48.8,44.2,30.18,North,5,0.0,0.0,84,0.00,,---,0.00,VWS V13.01,2013-01-21 03:18:00,
2013-01-20 21:23:00,48.6,44.3,30.18,North,5,0.0,0.0,85,0.00,,---,0.00,VWS V13.01,2013-01-21 03:23:00,
2013-01-20 21:28:00,48.5,44.2,30.18,North,5,0.0,0.0,85,0.00,,---,0.00,VWS V13.01,2013-01-21 03:28:00,
2013-01-20 21:33:00,48.3,44.0,30.18,North,5,0.0,0.0,85,0.00,,---,0.00,VWS V13.01,2013-01-21 03:33:00,
2013-01-20 21:38:00,48.1,43.8,30.18,North,5,0.0,0.0,85,0.00,,---,0.00,VWS V13.01,2013-01-21 03:38:00,
2013-01-20 21:43:00,48.0,44.0,30.18,North,5,0.0,0.0,86,0.00,,---,0.00,VWS V13.01,2013-01-21 03:43:00,
2013-01-20 21:48:00,47.8,43.8,30.18,North,5,0.0,0.0,86,0.00,,---,0.00,VWS V13.01,2013-01-21 03:48:00,
2013-01-20 21:53:00,47.7,43.7,30.18,North,5,0.0,1.0,86,0.00,,---,0.00,VWS V13.01,2013-01-21 03:53:00,
2013-01-20 21:58:00,47.6,43.6,30.18,North,5,0.0,0.0,86,0.00,,---,0.00,VWS V13.01,2013-01-21 03:58:00,
2013-01-20 22:03:00,47.5,43.8,30.18,North,5,0.0,1.0,87,0.00,,---,0.00,VWS V13.01,2013-01-21 04:03:00,
2013-01-20 22:08:00,47.4,43.7,30.18,North,5,0.0,1.0,87,0.00,,---,0.00,VWS V13.01,2013-01-21 04:08:00,
2013-01-20 22:13:00,47.5,44.1,30.18,North,5,0.0,1.0,88,0.00,,---,0.00,VWS V13.01,2013-01-21 04:13:00,
2013-01-20 22:18:00,47.6,44.2,30.18,North,5,0.0,1.0,88,0.00,,---,0.00,VWS V13.01,2013-01-21 04:18:00,
2013-01-20 22:23:00,47.6,44.2,30.18,North,5,0.0,1.0,88,0.00,,---,0.00,VWS V13.01,2013-01-21 04:23:00,
2013-01-20 22:28:00,47.7,44.6,30.18,North,5,0.0,1.0,89,0.00,,---,0.00,VWS V13.01,2013-01-21 04:28:00,
2013-01-20 22:33:00,47.8,44.7,30.18,North,5,0.0,0.0,89,0.00,,---,0.00,VWS V13.01,2013-01-21 04:33:00,
2013-01-20 22:38:00,47.8,44.7,30.18,North,5,0.0,0.0,89,0.00,,---,0.00,VWS V13.01,2013-01-21 04:38:00,
2013-01-20 22:43:00,47.7,44.6,30.18,North,5,0.0,0.0,89,0.00,,---,0.00,VWS V13.01,2013-01-21 04:43:00,
2013-01-20 22:48:00,47.7,44.6,30.18,North,5,0.0,1.0,89,0.00,,---,0.00,VWS V13.01,2013-01-21 04:48:00,
2013-01-20 22:53:00,47.6,44.5,30.18,North,5,0.0,1.0,89,0.00,,---,0.00,VWS V13.01,2013-01-21 04:53:00,
2013-01-20 22:58:00,47.6,44.5,30.18,North,5,0.0,0.0,89,0.00,,---,0.00,VWS V13.01,2013-01-21 04:58:00,
2013-01-20 23:00:00,47.6,44.5,30.18,North,5,0.0,0.0,89,0.00,,---,0.00,VWS V13.01,2013-01-21 05:00:00,
2013-01-20 23:03:00,47.5,44.4,30.17,North,5,0.0,1.0,89,0.00,,---,0.00,VWS V13.01,2013-01-21 05:03:00,
2013-01-20 23:08:00,47.4,44.3,30.17,North,5,0.0,0.0,89,0.00,,---,0.00,VWS V13.01,2013-01-21 05:08:00,
2013-01-20 23:13:00,47.4,44.3,30.18,North,5,0.0,0.0,89,0.00,,---,0.00,VWS V13.01,2013-01-21 05:13:00,
2013-01-20 23:18:00,47.3,44.2,30.17,NNW,337,0.0,2.0,89,0.00,,---,0.00,VWS V13.01,2013-01-21 05:18:00,
2013-01-20 23:23:00,47.2,44.1,30.17,NNW,337,0.0,2.0,89,0.00,,---,0.00,VWS V13.01,2013-01-21 05:23:00,
2013-01-20 23:28:00,47.2,44.1,30.17,NNW,336,0.0,1.0,89,0.00,,---,0.00,VWS V13.01,2013-01-21 05:28:00,
2013-01-20 23:33:00,47.2,44.1,30.17,NNW,336,0.0,0.0,89,0.00,,---,0.00,VWS V13.01,2013-01-21 05:33:00,
2013-01-20 23:39:00,47.1,44.0,30.16,NNW,336,0.0,0.0,89,0.00,,---,0.00,VWS V13.01,2013-01-21 05:39:00,
2013-01-20 23:44:00,47.1,44.0,30.16,NNW,336,0.0,0.0,89,0.00,,---,0.00,VWS V13.01,2013-01-21 05:44:00,
2013-01-20 23:49:00,47.0,43.9,30.16,NNW,336,0.0,0.0,89,0.00,,---,0.00,VWS V13.01,2013-01-21 05:49:00,
2013-01-20 23:54:00,47.0,43.9,30.16,NNW,336,0.0,1.0,89,0.00,,---,0.00,VWS V13.01,2013-01-21 05:54:00,
2013-01-20 23:59:00,46.9,43.8,30.16,NNW,336,0.0,0.0,89,0.00,,---,0.00,VWS V13.01,2013-01-21 05:59:00,